Find Starlink 33832

NORAD ID: 63637 Int'l Des: 2025-083 Owner: SPXS Country: US Constellation: starlink operational
LEOCIRCULAR

当前视图

正在加载3D地球...

About Starlink 33832

Starlink 33832 (NORAD 63637) is a starlink constellation satellite (v2 mini) launched Apr 25, 2025 by SPXS of US. It operates in LEO, CIRCULAR orbit with a mass of 575.00 kg.

即将过境

Passes for default location (London). Set your location on the main map for personalized predictions.

高度历史

Loading altitude history...

两行轨道根数

1 63637U 25083D 26263.30020773 .00014295 00000-0 52783-3 0 9993
2 63637 43.0031 345.8423 0001182 259.2540 100.8179 15.27590769 79830
Epoch: Sep 20, 2026 • Age: 20 hours

当前状态

高度 484.5 km
远地点 / 近地点 N/A
速度 7.62 km/s
星下点 -10.82°S, 129.62°E
发射日期 Apr 25, 2025
运行时间 1.4 years
类型 internet

技术详情

分类 Payload
质量 575.00 kg
干质量 530.00 kg
长度 0.30 m
跨度 29.00 m
形状 ? Box + pan
制造商 SPXS
平台类型 Starlink V2MO
阶段状态 In Orbit
所有者/国家 SPXS/US

Most Searched